Date String (YYYY-MM-DD hh:mm:ss) UTC,Instrument flags,Ambient pressure (hPa),Sample flow (lpm),Bypass flow (lpm),Sample temperature (°C),Ambient temperature (°C),ASC tube jacket temperature (°C),LED temperature (°C),Box temperature (°C),Sample RH (%),Span deviation,Mass concentration (μg/m³),Mass concentration (μg/m³),Mass concentration (μg/m³)
DateTimeUTC,F1_M11,P_M11,Q1_M11,Q2_M11,T1_M11,T2_M11,T3_M11,T4_M11,T5_M11,U1_M11,ZSPAN_M11,X0_M11,X2_M11,X1_M11
2022-02-06 13:00:00,,0832.4,5.02,0.00,22.3,21.8,00.0,31.3,23.9,12.3,0000.0,0002.96,0001.65,0001.10
2022-02-06 13:01:00,,0832.4,4.99,0.00,22.2,21.6,00.0,31.3,23.8,12.4,0000.0,0002.96,0001.65,0001.12
2022-02-06 13:02:00,,0832.4,5.01,0.00,22.2,21.4,00.0,31.3,23.7,12.5,0000.0,0002.96,0001.65,0001.15
2022-02-06 13:03:00,,0832.5,5.00,0.00,22.1,21.3,00.0,31.3,23.6,12.5,0000.0,0002.94,0001.63,0001.17
2022-02-06 13:04:00,,0832.5,4.99,0.00,22.0,21.1,00.0,31.2,23.5,12.6,0000.0,0002.95,0001.66,0001.19
2022-02-06 13:05:00,,0832.4,5.02,0.00,21.9,21.1,00.0,31.2,23.4,12.7,0000.0,0003.08,0001.70,0001.21
2022-02-06 13:06:00,,0832.4,4.98,0.00,21.9,21.0,00.0,31.2,23.4,12.7,0000.0,0003.07,0001.73,0001.22
2022-02-06 13:07:00,,0832.4,4.99,0.00,21.9,21.0,00.0,31.1,23.4,12.7,0000.0,0003.25,0001.76,0001.24
2022-02-06 13:08:00,,0832.4,5.00,0.00,21.8,21.0,00.0,31.1,23.4,12.7,0000.0,0003.16,0001.74,0001.26
2022-02-06 13:09:00,,0832.4,4.99,0.00,21.8,20.9,00.0,31.1,23.4,12.7,0000.0,0003.10,0001.73,0001.27
2022-02-06 13:10:00,,0832.5,5.00,0.00,21.8,21.3,00.0,31.1,23.5,12.7,0000.0,0003.06,0001.71,0001.27
2022-02-06 13:11:00,,0832.5,4.99,0.00,21.9,22.1,00.0,31.1,23.8,12.6,0000.0,0003.09,0001.70,0001.27
2022-02-06 13:12:00,,0832.5,5.01,0.00,22.1,22.7,00.0,31.1,24.0,12.5,0000.0,0003.35,0001.76,0001.26
2022-02-06 13:13:00,,0832.5,4.99,0.00,22.1,22.6,00.0,31.1,24.0,12.5,0000.0,0003.60,0001.77,0001.25
2022-02-06 13:14:00,,0832.5,5.00,0.00,22.1,22.2,00.0,31.1,23.8,12.5,0000.0,0004.70,0001.75,0001.26
2022-02-06 13:15:00,,0832.5,5.01,0.00,22.0,21.9,00.0,31.1,23.6,12.5,0000.0,0004.71,0001.76,0001.26
2022-02-06 13:16:00,,0832.5,4.99,0.00,22.0,21.6,00.0,31.1,23.5,12.6,0000.0,0004.58,0001.72,0001.25
2022-02-06 13:17:00,,0832.5,5.01,0.00,21.9,21.4,00.0,31.0,23.4,12.6,0000.0,0004.68,0001.77,0001.26
2022-02-06 13:18:00,,0832.5,4.99,0.00,21.8,21.2,00.0,31.0,23.3,12.6,0000.0,0004.43,0001.74,0001.27
2022-02-06 13:19:00,,0832.5,5.00,0.00,21.8,21.1,00.0,31.0,23.2,12.7,0000.0,0004.56,0001.73,0001.26
2022-02-06 13:20:00,,0832.5,5.01,0.00,21.7,21.0,00.0,31.0,23.2,12.7,0000.0,0004.72,0001.72,0001.26
2022-02-06 13:21:00,,0832.5,4.99,0.00,21.7,20.9,00.0,30.9,23.3,12.6,0000.0,0005.85,0001.75,0001.27
2022-02-06 13:22:00,,0832.6,5.00,0.00,21.7,20.9,00.0,30.9,23.3,12.6,0000.0,0006.07,0001.71,0001.26
2022-02-06 13:23:00,,0832.6,4.99,0.00,21.6,20.9,00.0,30.9,23.2,12.6,0000.0,0006.04,0001.64,0001.24
2022-02-06 13:24:00,,0832.6,4.99,0.00,21.6,20.8,00.0,30.9,23.1,12.6,0000.0,0006.10,0001.60,0001.23
2022-02-06 13:25:00,,0832.6,5.01,0.00,21.6,20.9,00.0,30.8,23.1,12.7,0000.0,0004.80,0001.57,0001.21
2022-02-06 13:26:00,,0832.7,4.98,0.00,21.7,21.6,00.0,30.8,23.3,12.6,0000.0,0005.16,0001.54,0001.19
2022-02-06 13:27:00,,0832.7,5.01,0.00,21.8,22.4,00.0,30.9,23.7,12.5,0000.0,0005.25,0001.54,0001.18
2022-02-06 13:28:00,,0832.6,5.00,0.00,22.0,23.0,00.0,30.9,23.9,12.4,0000.0,0005.06,0001.46,0001.17
2022-02-06 13:29:00,,0832.7,5.01,0.00,22.0,22.7,00.0,30.9,23.9,12.4,0000.0,0005.41,0001.40,0001.16
2022-02-06 13:30:00,,0832.6,4.99,0.00,22.0,22.3,00.0,30.9,23.7,12.4,0000.0,0005.36,0001.41,0001.16
2022-02-06 13:31:00,,0832.6,5.01,0.00,21.9,21.9,00.0,30.9,23.5,12.4,0000.0,0005.27,0001.42,0001.15
2022-02-06 13:32:00,,0832.7,4.99,0.00,21.8,21.6,00.0,30.9,23.4,12.4,0000.0,0004.12,0001.37,0001.13
2022-02-06 13:33:00,,0832.7,4.99,0.00,21.7,21.3,00.0,30.9,23.2,12.5,0000.0,0003.86,0001.39,0001.13
2022-02-06 13:34:00,,0832.7,5.02,0.00,21.6,21.1,00.0,30.9,23.1,12.5,0000.0,0003.72,0001.43,0001.14
2022-02-06 13:35:00,,0832.7,4.99,0.00,21.6,20.9,00.0,30.8,23.0,12.6,0000.0,0003.40,0001.42,0001.14
2022-02-06 13:36:00,,0832.7,5.00,0.00,21.5,20.7,00.0,30.8,22.9,12.7,0000.0,0003.37,0001.41,0001.13
2022-02-06 13:37:00,,0832.7,5.00,0.00,21.4,20.6,00.0,30.7,22.8,12.7,0000.0,0002.90,0001.40,0001.13
2022-02-06 13:38:00,,0832.7,5.00,0.00,21.3,20.6,00.0,30.7,22.8,12.7,0000.0,0002.87,0001.42,0001.13
2022-02-06 13:39:00,,0832.7,4.99,0.00,21.4,21.2,00.0,30.7,23.0,12.7,0000.0,0003.00,0001.47,0001.13
2022-02-06 13:40:00,,0832.7,5.01,0.00,21.6,22.0,00.0,30.7,23.4,12.6,0000.0,0002.50,0001.47,0001.14
2022-02-06 13:41:00,,0832.7,4.99,0.00,21.7,22.6,00.0,30.8,23.6,12.5,0000.0,0002.46,0001.46,0001.13
2022-02-06 13:42:00,,0832.7,5.01,0.00,21.8,22.4,00.0,30.8,23.7,12.4,0000.0,0002.25,0001.44,0001.14
2022-02-06 13:43:00,,0832.7,4.99,0.00,21.8,22.1,00.0,30.8,23.6,12.3,0000.0,0002.23,0001.45,0001.14
2022-02-06 13:44:00,,0832.7,5.01,0.00,21.8,21.8,00.0,30.8,23.4,12.4,0000.0,0002.22,0001.44,0001.13
2022-02-06 13:45:00,,0832.7,5.00,0.00,21.7,21.5,00.0,30.8,23.3,12.4,0000.0,0002.23,0001.43,0001.12
2022-02-06 13:46:00,,0832.7,4.99,0.00,21.6,21.3,00.0,30.8,23.2,12.5,0000.0,0002.37,0001.49,0001.11
2022-02-06 13:47:00,,0832.7,5.00,0.00,21.6,21.2,00.0,30.7,23.2,12.5,0000.0,0002.45,0001.52,0001.12
2022-02-06 13:48:00,,0832.7,5.01,0.00,21.6,21.0,00.0,30.7,23.1,12.5,0000.0,0002.55,0001.56,0001.12
2022-02-06 13:49:00,,0832.8,5.00,0.00,21.5,20.9,00.0,30.7,23.1,12.5,0000.0,0002.49,0001.54,0001.12
2022-02-06 13:50:00,,0832.8,5.00,0.00,21.5,20.8,00.0,30.7,23.0,12.6,0000.0,0002.27,0001.47,0001.10
2022-02-06 13:51:00,,0832.7,5.00,0.00,21.4,20.7,00.0,30.6,23.0,12.6,0000.0,0002.26,0001.42,0001.09
2022-02-06 13:52:00,,0832.7,5.01,0.00,21.4,20.6,00.0,30.6,22.9,12.6,0000.0,0002.43,0001.45,0001.09
2022-02-06 13:53:00,,0832.7,5.00,0.00,21.4,20.9,00.0,30.6,22.9,12.6,0000.0,0002.51,0001.47,0001.08
2022-02-06 13:54:00,,0832.7,4.99,0.00,21.5,21.7,00.0,30.6,23.2,12.5,0000.0,0002.73,0001.48,0001.09
2022-02-06 13:55:00,,0832.7,5.01,0.00,21.7,22.5,00.0,30.7,23.6,12.4,0000.0,0002.75,0001.48,0001.09
2022-02-06 13:56:00,,0832.8,5.01,0.00,21.8,22.4,00.0,30.7,23.6,12.3,0000.0,0002.79,0001.48,0001.10
2022-02-06 13:57:00,,0832.7,4.98,0.00,21.7,22.1,00.0,30.7,23.5,12.4,0000.0,0002.71,0001.42,0001.09
2022-02-06 13:58:00,,0832.8,5.01,0.00,21.7,21.9,00.0,30.7,23.4,12.4,0000.0,0002.91,0001.39,0001.08
2022-02-06 13:59:00,,0832.8,5.01,0.00,21.7,21.7,00.0,30.7,23.4,12.4,0000.0,0003.70,0001.35,0001.07
